Temp
2 2 2 2 2 2 2 2 2 2 2 2 1 2 2 2 2 2 1 1 1 1 1 -0 0 0 1 -1 -4 -2 -1 -1 -2 1 2 3 4 5 8 7 8 9 9 10 10 11 11 3 6 9 3 4 5 6
3 2 2 2 2 2 2 2 2 2 2 2 1 1 1 2 2 2 1 1 0 -0 -2 1 1 1 0 0 -1 -4 -3 -1 1 -1 -1 -2 2 4 4 7 2 4 -3 1 3 4 -1 -0 1 -0 -1 1 3 3
4 4 2 2 2 2 2 2 2 2 2 2 1 1 1 1 2 2 0 0 -1 -5 -4 -2 -1 2 1 0 -0 -5 -5 -2 -1 0 0 -1 -0 2 3 0 -0 -4 -6 -4 -3 -2 -5 -2 -2 -1 -2 -1 1 2
4 4 3 2 2 1 2 2 2 2 2 2 1 1 1 1 1 2 0 -1 -1 -3 -5 -4 0 0 0 1 -1 -2 -1 -1 -1 0 1 -1 -0 -0 -1 -4 -6 -8 -7 -7 -5 -5 -6 -1 -4 -3 -3 -1 0 0
4 4 4 3 3 1 1 1 2 2 1 1 1 1 2 1 1 1 -0 -1 -1 -2 -7 -5 -1 -0 0 0 -0 -1 -2 -1 0 -1 1 -0 -2 -3 -5 -6 -9 -9 -9 -8 -8 -7 -8 -6 -6 -5 -5 -1 -1 -1
4 4 4 4 3 2 1 1 1 1 1 1 1 1 2 2 0 -0 -4 -1 -1 -1 -3 -6 -4 -5 -2 -1 -2 -2 -1 -3 -0 -1 -1 -3 -4 -4 -5 -7 -9 -9 -9 -10 -9 -9 -8 -7 -7 -4 -3 -2 -2 -1
4 4 4 4 3 3 2 1 1 1 1 1 1 1 1 2 1 0 -2 -2 -1 -1 -7 -9 -8 -7 -5 -5 -5 -5 -4 -3 -3 -3 -4 -7 -9 -8 -11 -11 -9 -10 -10 -10 -10 -10 -8 -6 -7 -5 -4 -3 -4 -4
4 4 4 3 3 3 2 1 1 1 1 2 2 1 0 1 0 0 -1 -1 -0 -2 -9 -13 -9 -7 -6 -8 -8 -7 -6 -5 -3 -4 -5 -6 -8 -11 -11 -10 -10 -11 -11 -10 -10 -10 -9 -8 -7 -6 -5 -5 -5 -5
4 4 4 3 3 3 2 1 1 1 2 3 2 1 1 1 -0 -1 -2 -1 -1 -3 -12 -12 -10 -9 -7 -9 -9 -8 -8 -6 -3 -5 -5 -6 -9 -10 -9 -10 -11 -11 -12 -12 -11 -10 -10 -8 -8 -7 -7 -6 -6 -6
4 4 4 3 3 2 1 1 1 1 2 2 2 1 -7 -1 -1 -1 -1 -9 -10 -12 -12 -9 -11 -10 -9 -10 -10 -8 -9 -7 -5 -3 -6 -10 -9 -10 -11 -11 -12 -12 -12 -12 -12 -12 -11 -10 -9 -9 -8 -8 -8 -7
4 4 3 3 2 2 1 1 1 1 2 1 -2 -8 -1 -1 -1 -9 -11 -9 -13 -11 -8 -11 -11 -11 -10 -11 -10 -7 -9 -7 -7 -5 -7 -9 -9 -13 -14 -14 -13 -13 -13 -12 -12 -12 -11 -11 -11 -10 -9 -9 -8 -8
4 4 3 3 2 2 1 1 1 1 0 -1 -2 -3 -3 -7 -11 -7 -14 -10 -8 -6 -9 -11 -12 -12 -12 -11 -9 -9 -8 -7 -7 -10 -12 -10 -14 -15 -16 -14 -13 -13 -13 -13 -12 -12 -12 -12 -12 -11 -11 -10 -10 -10
4 4 3 3 2 1 1 1 1 1 0 -2 -3 -8 -8 -10 -4 -3 -4 -8 -8 -10 -13 -14 -12 -14 -13 -13 -15 -10 -10 -9 -7 -13 -11 -13 -14 -16 -17 -16 -14 -13 -13 -13 -12 -12 -12 -12 -12 -12 -11 -11 -11 -11
4 4 4 3 2 1 1 1 0 0 -0 -6 -6 -3 -5 -5 -6 -6 -6 -7 -9 -10 -12 -15 -15 -14 -15 -14 -14 -11 -10 -11 -15 -15 -12 -17 -16 -18 -18 -17 -17 -14 -13 -13 -13 -13 -12 -12 -12 -12 -12 -12 -11 -11
4 4 3 2 2 1 1 0 -0 -1 0 -4 -6 -2 -8 -6 -10 -10 -12 -10 -12 -13 -15 -16 -16 -15 -15 -15 -15 -13 -12 -14 -14 -11 -13 -15 -17 -19 -18 -17 -16 -14 -14 -13 -13 -13 -13 -13 -13 -13 -12 -12 -12 -12
4 3 3 3 2 1 1 0 -1 -2 -3 -6 -7 -7 -7 -6 -7 -9 -10 -11 -14 -15 -15 -16 -19 -17 -15 -16 -13 -13 -16 -13 -11 -14 -15 -17 -17 -18 -18 -16 -13 -13 -13 -13 -13 -13 -13 -13 -13 -13 -12 -12 -12 -12
4 3 3 3 2 1 -1 -1 -3 -5 -5 -9 -7 -7 -5 -6 -5 -7 -9 -10 -14 -12 -12 -17 -13 -10 -18 -17 -15 -14 -14 -12 -15 -17 -16 -16 -17 -18 -15 -14 -13 -13 -13 -13 -13 -13 -13 -13 -12 -13 -13 -13 -13 -12
3 3 4 3 2 -1 -1 -2 -4 -7 -7 -9 -7 -7 -7 -8 -9 -11 -12 -14 -12 -13 -14 -13 -17 -15 -14 -13 -12 -12 -15 -20 -19 -18 -17 -17 -15 -14 -14 -14 -13 -13 -13 -13 -13 -13 -13 -13 -13 -13 -13 -13 -13 -13
3 3 3 2 1 -1 -4 -7 -7 -7 -8 -10 -10 -10 -9 -10 -13 -13 -13 -14 -15 -14 -16 -19 -18 -14 -12 -14 -13 -17 -19 -18 -19 -20 -22 -15 -15 -15 -14 -14 -13 -13 -13 -13 -13 -14 -14 -14 -13 -13 -13 -13 -13 -13
3 3 3 0 -0 -2 -5 -8 -10 -10 -10 -10 -11 -10 -11 -12 -13 -14 -14 -14 -13 -14 -15 -15 -12 -12 -13 -15 -16 -17 -17 -18 -20 -20 -19 -17 -14 -14 -14 -14 -14 -14 -13 -13 -13 -13 -14 -14 -14 -13 -13 -13 -13 -13
2 2 1 -2 -2 -2 -3 -9 -10 -11 -12 -12 -14 -11 -13 -13 -13 -14 -14 -15 -14 -13 -13 -13 -15 -18 -17 -17 -15 -15 -17 -17 -20 -19 -20 -20 -14 -14 -14 -14 -14 -14 -13 -13 -13 -13 -14 -14 -14 -14 -14 -14 -14 -13
-0 -0 -3 -3 -5 -8 -9 -12 -9 -12 -12 -14 -13 -12 -13 -13 -13 -14 -15 -14 -14 -12 -12 -15 -17 -17 -18 -20 -18 -15 -15 -16 -16 -16 -15 -15 -18 -16 -15 -14 -14 -14 -14 -13 -14 -14 -14 -14 -14 -14 -14 -14 -14 -13
-2 -2 -4 -4 -5 -5 -11 -13 -10 -12 -10 -12 -14 -11 -11 -13 -15 -17 -14 -14 -13 -13 -15 -17 -18 -16 -16 -17 -16 -16 -16 -16 -18 -17 -16 -16 -16 -16 -15 -15 -15 -15 -15 -15 -15 -15 -15 -14 -14 -15 -15 -15 -14 -14
-3 -4 -4 -3 -4 -10 -13 -15 -12 -12 -13 -12 -11 -10 -11 -13 -17 -16 -14 -14 -13 -16 -17 -20 -18 -18 -18 -18 -19 -18 -17 -16 -16 -17 -17 -17 -17 -16 -16 -16 -16 -16 -16 -15 -15 -16 -16 -16 -15 -15 -15 -15 -15 -15
-2 -3 -4 -7 -12 -11 -11 -12 -12 -12 -10 -11 -10 -10 -14 -16 -14 -14 -16 -15 -16 -16 -16 -17 -16 -17 -17 -18 -18 -17 -16 -16 -17 -18 -16 -16 -17 -17 -17 -17 -17 -17 -16 -16 -16 -16 -16 -16 -16 -16 -16 -16 -16 -15
-2 -4 -4 -5 -10 -8 -10 -10 -11 -10 -10 -10 -9 -15 -14 -13 -12 -11 -14 -17 -16 -17 -17 -16 -16 -17 -18 -18 -19 -19 -17 -16 -16 -17 -16 -16 -17 -17 -17 -18 -18 -17 -17 -17 -16 -17 -17 -17 -17 -17 -17 -16 -15 -16
-1 -4 -9 -10 -9 -10 -10 -10 -10 -9 -9 -9 -12 -14 -13 -11 -11 -12 -15 -17 -17 -16 -15 -15 -15 -16 -17 -17 -16 -15 -15 -16 -16 -16 -16 -16 -17 -17 -17 -17 -17 -17 -16 -17 -17 -17 -17 -17 -17 -17 -16 -16 -16 -16
-9 -9 -7 -10 -10 -9 -9 -9 -9 -9 -8 -10 -12 -12 -11 -10 -9 -14 -16 -17 -17 -17 -16 -15 -15 -14 -15 -15 -15 -16 -16 -17 -17 -18 -18 -18 -18 -18 -17 -17 -17 -17 -17 -17 -17 -17 -17 -17 -16 -16 -16 -16 -16 -16
-13 -11 -11 -11 -10 -9 -10 -10 -9 -13 -14 -11 -10 -10 -11 -14 -16 -16 -17 -18 -18 -17 -18 -18 -18 -16 -16 -16 -16 -16 -16 -17 -18 -24 -24 -24 -20 -17 -17 -17 -17 -18 -17 -17 -17 -16 -16 -15 -15 -16 -16 -16 -17 -17
-12 -12 -10 -10 -10 -11 -17 -18 -16 -16 -15 -15 -14 -14 -15 -16 -18 -18 -18 -17 -17 -17 -17 -17 -17 -16 -18 -17 -18 -18 -17 -17 -18 -18 -24 -24 -18 -17 -17 -17 -17 -18 -17 -17 -17 -16 -17 -16 -16 -16 -16 -17 -17 -17
-13 -12 -14 -15 -16 -17 -18 -18 -17 -16 -16 -16 -16 -15 -15 -16 -18 -18 -18 -18 -17 -17 -17 -18 -18 -17 -17 -17 -17 -18 -18 -17 -17 -18 -18 -18 -18 -17 -18 -17 -17 -17 -17 -17 -17 -16 -16 -16 -16 -16 -17 -17 -17 -18
-15 -15 -13 -14 -16 -17 -18 -17 -16 -16 -16 -16 -16 -16 -16 -15 -14 -17 -18 -18 -18 -18 -17 -17 -17 -17 -17 -17 -17 -17 -17 -17 -17 -17 -17 -17 -17 -17 -17 -17 -17 -17 -17 -17 -16 -16 -17 -17 -16 -17 -17 -17 -17 -18
-14 -15 -16 -16 -16 -15 -16 -15 -15 -16 -16 -16 -17 -18 -18 -18 -16 -19 -18 -19 -19 -18 -17 -17 -17 -17 -17 -17 -17 -17 -17 -17 -17 -17 -17 -18 -16 -16 -16 -16 -16 -16 -16 -16 -16 -17 -17 -17 -17 -17 -17 -18 -18 -18
Height
895 892 889 885 881 876 871 866 858 854 848 842 835 830 827 824 822 821 819 817 816 813 807 808 808 808 804 808 817 800 790 784 784 774 770 761 749 730 714 714 706 704 704 701 704 695 696 732 710 703 732 718 713 706
894 890 888 885 881 875 870 866 860 854 848 841 835 830 827 824 821 820 819 817 813 814 812 808 807 806 807 807 808 806 806 797 784 789 789 788 767 750 745 717 744 735 783 756 744 737 760 755 747 751 746 736 719 713
892 889 886 883 879 875 870 865 860 854 848 841 835 830 826 824 823 820 820 817 812 813 811 807 807 807 806 808 807 815 802 795 791 790 785 788 781 768 758 772 769 786 793 783 773 761 766 757 748 748 748 742 726 716
889 887 884 881 878 874 870 865 860 854 847 841 833 829 826 824 823 822 821 820 816 816 821 813 805 806 806 804 801 799 795 793 793 786 781 784 780 779 783 800 811 824 810 809 784 777 763 747 755 755 748 738 728 719
887 884 881 879 875 871 867 863 859 854 846 840 833 828 825 824 822 821 821 821 818 821 829 816 805 805 805 801 794 791 791 791 787 786 779 782 789 790 800 811 831 834 831 824 809 801 802 781 769 761 752 738 730 725
885 882 878 875 872 868 864 860 855 851 845 838 831 827 825 823 822 823 822 822 819 817 819 826 809 806 801 798 793 791 789 788 786 787 788 795 803 801 808 820 830 831 828 825 814 806 796 781 772 762 749 739 735 729
881 878 875 872 869 865 861 857 853 848 843 837 831 826 825 823 821 823 828 824 818 816 821 832 825 811 808 802 798 795 791 790 789 792 799 811 815 815 835 845 833 829 826 817 808 800 784 775 771 757 746 743 738 734
876 874 871 869 866 863 859 855 850 845 839 834 830 828 827 825 823 824 824 823 819 816 821 851 837 823 818 819 815 805 803 796 794 798 805 812 819 827 840 836 834 828 819 808 803 798 791 781 771 761 752 747 743 740
870 868 867 866 863 860 857 853 849 843 837 831 828 826 827 826 824 824 823 824 822 823 843 851 858 850 827 830 825 818 813 811 798 806 811 816 829 838 835 832 827 821 819 812 802 794 786 778 771 763 755 753 751 748
864 863 862 861 859 856 854 851 848 841 835 829 828 827 831 827 824 824 823 825 827 833 838 849 851 852 843 840 835 828 823 818 811 809 815 832 834 836 835 832 827 820 815 808 802 792 785 782 776 766 762 759 756 754
858 858 857 856 854 852 850 848 846 840 835 832 830 830 827 825 824 827 842 843 851 852 845 850 852 852 844 852 845 833 836 823 826 816 823 833 835 843 836 831 825 820 815 811 806 800 794 787 779 772 768 765 760 758
852 851 850 849 848 847 846 845 843 839 837 836 835 831 828 828 835 841 866 853 846 842 845 850 853 851 848 845 843 837 835 829 829 832 847 839 848 841 837 830 824 819 814 809 805 800 793 785 780 776 772 771 768 765
843 843 842 842 841 841 841 841 840 837 834 832 833 833 835 842 834 833 840 851 849 845 850 851 854 854 850 848 856 844 849 839 829 854 846 846 841 839 837 831 825 820 816 811 806 802 797 791 786 783 780 778 777 774
834 834 835 834 834 834 836 836 836 835 833 834 839 835 836 836 834 830 829 832 834 837 844 850 856 856 857 854 855 850 845 846 869 874 849 849 841 837 834 830 827 822 818 815 811 807 803 798 792 788 786 785 785 780
825 826 826 825 827 827 830 828 830 831 832 835 838 827 836 820 828 828 832 832 837 839 844 853 858 858 860 859 861 856 856 864 859 842 840 838 836 835 831 828 827 823 820 817 814 810 807 804 799 795 794 793 791 789
817 815 814 816 817 820 822 822 824 826 828 830 830 827 822 821 823 827 829 832 836 841 846 850 867 869 863 865 858 860 874 851 831 834 830 832 832 831 828 825 824 823 821 819 816 814 811 809 806 804 801 799 799 798
807 801 802 805 808 811 811 816 821 824 824 825 817 812 809 811 806 811 818 824 831 836 844 858 856 845 869 871 865 853 845 825 825 827 825 825 827 827 825 823 823 822 821 820 818 815 814 812 810 809 807 806 805 804
792 791 793 794 795 800 805 810 813 817 816 810 810 805 807 808 810 814 819 824 827 833 839 841 849 857 852 850 832 819 819 824 822 821 821 822 823 823 822 822 821 820 820 820 818 817 815 814 813 812 811 810 809 808
780 782 783 781 787 793 800 806 809 810 804 806 806 806 807 809 813 813 817 822 825 827 832 845 852 841 821 816 809 816 819 817 820 820 819 819 820 821 820 820 819 819 819 819 818 817 816 816 815 814 814 813 812 812
770 771 769 771 776 782 793 800 801 805 808 803 805 807 808 810 813 816 819 823 825 827 832 832 812 801 801 799 797 802 805 809 814 820 819 816 817 818 818 818 817 817 818 818 818 817 817 817 816 816 815 815 814 814
760 759 763 767 770 774 776 789 797 798 802 805 807 806 812 814 815 817 819 822 824 819 809 795 793 793 792 792 793 796 802 806 809 810 814 818 816 816 816 816 816 815 816 817 817 816 817 817 817 817 817 817 816 816
752 754 758 762 767 774 780 786 788 796 801 807 808 806 809 810 811 814 816 818 808 789 785 784 784 787 790 791 792 795 799 804 806 808 810 813 814 814 814 815 815 814 815 816 817 816 817 817 817 817 818 817 817 817
748 752 757 761 767 769 787 789 790 795 795 803 807 802 802 804 809 814 810 799 784 775 775 778 780 782 785 789 791 795 799 802 804 806 808 810 812 813 813 813 813 813 814 815 816 816 817 817 817 817 817 817 818 817
747 751 754 755 758 779 788 795 791 794 799 798 797 791 793 801 812 809 798 783 770 771 774 776 779 785 789 792 792 794 797 800 802 804 807 809 810 810 811 812 812 812 813 814 815 815 816 816 817 817 817 817 817 818
744 747 749 760 775 778 780 788 788 790 782 787 786 784 796 804 799 796 794 774 769 770 773 776 779 781 783 787 790 793 795 797 799 802 804 806 808 809 810 810 810 810 811 812 814 815 815 816 816 817 817 817 817 817
739 740 743 743 761 759 765 771 775 773 773 777 776 793 793 792 789 775 774 770 767 768 770 772 775 781 783 784 787 790 792 794 797 799 801 803 805 806 807 808 808 809 810 811 813 814 815 815 816 816 816 816 816 816
729 737 748 752 753 757 761 762 763 761 764 763 779 787 785 781 771 765 767 767 766 766 766 769 773 775 778 783 784 788 791 793 796 798 800 801 803 804 805 806 806 808 808 810 811 812 813 814 814 815 814 815 814 814
749 749 745 754 754 754 756 757 757 755 755 761 770 775 770 762 756 769 769 769 768 767 768 771 775 778 780 781 784 787 790 793 795 797 799 800 800 801 802 803 804 806 807 809 810 811 812 812 812 811 811 811 811 810
758 754 753 757 754 752 757 756 753 763 766 761 760 759 762 770 772 771 771 771 770 771 772 774 777 779 780 783 786 788 790 791 794 798 801 801 798 798 798 799 801 803 805 807 808 809 809 809 808 808 808 808 808 807
758 757 753 754 753 760 776 777 772 772 770 769 769 769 770 773 774 773 773 773 774 774 775 776 777 779 781 784 786 788 789 791 792 794 797 798 796 796 796 798 799 801 803 805 806 806 806 806 806 806 806 805 804 802
761 759 766 771 776 779 779 777 775 773 773 773 772 771 773 774 774 774 775 775 776 776 776 778 780 781 783 784 785 787 788 789 790 791 793 795 795 795 796 798 800 801 802 803 803 803 803 803 803 803 802 801 800 798
768 769 767 770 776 780 779 777 776 775 775 774 776 775 775 773 773 776 776 776 776 777 778 779 780 781 782 783 785 786 787 788 789 790 791 792 794 795 796 797 798 799 799 799 799 799 799 799 799 798 798 797 795 794
772 773 775 776 777 777 778 777 776 777 778 779 782 783 782 782 776 777 776 775 776 777 778 779 780 781 781 782 784 785 786 787 788 789 790 791 792 793 794 794 795 795 795 794 794 794 794 794 794 794 793 793 791 790
Wind_Speed
16 18 19 21 23 26 28 30 30 32 32 32 27 20 16 14 12 9 4 8 4 2 4 3 2 2 2 2 3 7 7 4 4 6 4 4 3 5 5 3 3 4 3 5 5 4 6 17 4 2 9 8 10 6
16 18 19 20 22 24 27 28 29 31 32 32 27 20 15 14 10 7 2 10 8 4 4 5 9 9 5 1 4 3 4 5 2 3 3 3 3 3 5 3 8 2 4 5 7 3 10 10 10 10 13 13 12 15
16 18 19 20 21 23 25 27 29 30 31 32 27 18 13 12 9 4 4 18 4 3 4 3 1 5 1 11 5 1 3 3 4 2 2 2 3 3 4 4 5 14 15 3 8 9 22 9 17 19 18 15 16 12
17 18 19 20 22 23 25 27 29 30 31 32 27 17 11 10 5 4 5 20 7 2 1 5 3 4 2 25 23 14 16 12 7 3 2 2 2 4 3 3 5 4 12 13 6 11 21 6 25 24 25 19 15 10
17 18 20 21 23 23 24 26 29 31 31 32 26 16 8 7 4 1 3 15 17 3 2 4 12 2 14 32 26 13 9 5 3 2 2 2 2 4 3 4 3 5 5 5 5 17 12 19 23 30 22 17 12 8
19 18 19 21 23 24 24 25 27 30 32 31 23 12 7 4 1 2 2 1 20 7 1 3 3 7 27 30 21 14 7 2 1 1 2 3 3 4 2 2 3 10 9 10 8 15 18 23 24 18 15 11 7 7
21 20 20 20 22 24 24 25 27 30 32 32 20 6 4 4 4 4 2 10 15 0 3 4 5 5 17 7 8 4 8 2 2 2 3 2 3 3 3 3 12 15 14 17 12 14 9 9 15 17 11 9 7 9
21 21 21 21 21 22 25 25 27 29 32 30 15 1 1 1 2 1 10 12 3 6 6 3 4 5 11 4 4 6 3 3 4 2 2 2 2 2 2 8 12 12 16 11 15 15 15 15 14 11 10 6 5 5
23 22 22 21 21 21 23 24 26 30 33 23 7 3 3 1 2 3 6 5 10 7 3 3 2 4 7 2 2 4 2 3 2 2 2 3 2 4 8 14 15 15 11 14 17 13 12 11 12 11 8 7 4 4
25 24 23 22 21 20 20 21 23 29 30 17 3 2 3 4 10 2 1 3 5 6 4 2 1 2 3 3 3 4 2 2 3 3 2 3 2 3 4 9 10 12 12 13 13 15 15 12 11 12 8 6 4 4
25 25 24 23 22 20 18 18 20 25 14 9 8 1 6 8 1 6 3 3 3 4 1 1 2 2 2 1 3 1 3 3 3 3 2 1 1 3 6 8 9 14 14 12 11 11 11 8 8 8 9 9 8 8
27 26 26 24 22 20 17 16 17 18 14 10 10 7 4 5 3 5 1 3 1 2 1 2 2 2 2 2 2 3 2 3 2 2 3 1 3 5 6 8 11 14 15 13 14 12 14 13 14 11 11 12 12 13
29 28 26 26 23 19 16 15 15 16 16 3 1 3 3 2 3 4 3 3 2 2 2 2 2 0 3 3 2 2 3 2 2 3 2 3 2 4 6 5 7 14 15 15 14 17 15 14 17 17 15 16 15 18
31 29 27 27 24 19 16 14 15 9 4 2 2 5 3 3 4 4 4 4 2 3 3 2 1 1 1 3 1 2 3 2 3 3 4 3 4 4 5 5 4 7 11 11 12 14 14 13 14 18 19 19 17 19
31 30 28 27 25 21 16 16 13 1 2 2 3 5 6 3 1 1 1 2 1 3 3 2 2 2 2 2 2 2 5 3 5 4 3 3 4 3 3 3 5 5 8 8 10 10 12 13 12 15 18 20 20 20
30 30 32 29 26 21 21 17 8 6 1 3 3 2 1 0 2 2 3 2 3 3 2 3 2 3 2 2 2 5 5 6 4 3 2 2 2 3 3 5 7 7 8 8 8 8 9 11 11 11 18 19 19 19
29 18 20 22 20 21 25 10 5 4 4 3 4 2 3 1 2 3 4 3 11 3 2 3 3 7 2 2 3 4 5 3 3 2 2 3 3 4 6 8 5 4 5 6 6 6 6 7 11 12 12 14 17 18
33 27 24 23 28 24 12 9 6 4 7 4 3 3 2 1 3 3 3 5 4 3 4 5 4 3 5 5 4 4 4 2 2 2 2 3 4 6 5 6 5 3 4 4 3 3 4 6 7 7 9 10 13 15
34 31 27 32 30 10 7 5 4 4 6 1 1 1 2 2 3 5 6 6 4 4 6 2 3 4 4 4 4 2 2 3 3 3 3 6 8 7 5 4 3 3 3 2 1 1 3 5 5 5 6 8 9 9
31 32 29 40 35 9 4 2 4 2 2 2 2 2 2 2 3 3 4 3 2 2 1 4 6 4 4 3 3 3 3 6 3 1 2 2 4 5 5 3 3 2 3 3 3 3 2 3 5 5 4 5 6 6
22 21 27 31 10 4 2 4 2 2 2 2 1 2 2 2 2 3 3 3 2 3 4 6 3 2 3 4 11 12 13 14 4 3 3 2 3 3 3 3 3 3 4 4 3 2 4 2 2 2 4 5 4 4
9 27 11 9 4 2 4 3 3 2 2 1 2 2 2 3 3 3 3 3 4 5 5 3 3 4 4 3 10 13 11 13 9 7 5 6 0 1 3 4 2 2 4 4 5 5 4 1 1 1 2 1 2 3
22 11 6 5 3 2 2 2 3 3 3 4 2 3 2 3 2 3 3 4 4 4 5 3 4 7 11 11 13 12 12 15 11 9 7 5 6 5 4 4 4 3 4 4 5 5 5 1 3 1 1 1 1 2
10 7 4 5 1 4 2 1 1 3 2 3 4 4 4 3 3 2 4 3 2 3 4 5 11 5 6 7 3 10 14 13 9 7 7 6 5 5 6 5 5 5 5 6 6 5 4 3 1 1 0 0 1 1
5 6 5 4 2 5 5 5 4 4 4 4 5 3 3 3 3 4 4 3 1 2 3 8 7 3 3 2 5 10 13 15 13 8 6 9 7 5 4 4 3 4 6 7 7 6 5 3 2 1 2 2 3 4
5 3 6 8 3 5 7 7 8 7 4 4 4 2 2 3 3 6 3 2 2 3 5 7 6 4 2 5 4 8 15 14 10 6 5 9 11 9 8 7 4 4 7 7 7 6 5 3 2 3 4 4 5 4
5 6 1 2 3 4 2 1 2 3 6 6 4 5 3 4 6 3 1 0 1 3 13 17 16 11 8 12 7 11 12 14 8 5 3 4 8 8 8 7 7 4 6 8 6 4 4 4 4 6 7 6 7 9
2 2 3 3 2 0 3 3 4 5 4 3 6 5 5 4 1 1 2 4 2 7 13 14 11 9 8 13 12 13 12 13 10 5 6 7 9 12 12 11 9 5 7 6 4 3 5 7 8 8 9 12 13 8
2 2 2 2 2 2 1 1 1 3 3 2 3 2 2 1 2 3 3 1 6 13 15 15 12 11 12 14 12 11 7 11 9 3 2 3 3 7 10 10 10 14 12 10 7 7 8 9 12 14 9 8 11 12
2 3 1 2 1 1 2 2 2 2 2 2 1 1 1 1 3 3 2 5 6 8 10 11 15 13 14 13 10 8 8 8 9 10 4 4 6 4 6 7 8 9 10 9 7 6 7 9 8 6 9 11 12 12
3 1 3 3 2 1 1 3 4 1 2 2 2 2 1 1 1 2 2 4 6 8 10 11 11 9 11 11 9 7 5 7 9 10 11 8 4 6 8 8 6 6 7 8 8 8 10 9 10 11 13 14 14 13
3 3 1 2 1 1 2 2 2 2 2 2 3 2 1 1 1 1 2 5 6 7 6 8 10 9 10 7 6 7 5 3 5 7 8 9 9 8 7 9 9 8 8 10 13 14 15 14 14 14 15 16 17 17
1 2 2 2 1 1 1 1 2 1 2 2 3 3 2 2 2 2 2 5 8 7 8 7 4 5 4 7 8 7 7 6 7 7 7 6 4 5 6 9 12 13 16 17 17 18 16 16 16 15 16 17 17 16
Wind_Direction
344 346 349 350 354 357 358 357 360 355 357 356 354 354 359 3 5 10 54 23 9 274 286 179 255 284 280 22 354 308 342 357 340 11 4 339 311 331 335 303 323 180 238 181 205 234 242 356 348 129 334 315 321 313
341 343 344 347 349 353 354 355 356 354 354 354 352 349 348 354 351 346 12 356 319 221 244 279 289 280 240 26 329 313 221 299 304 3 8 330 316 321 318 305 351 81 15 296 4 45 341 334 49 7 354 331 325 318
336 341 342 344 345 347 350 352 352 353 352 351 350 346 344 350 347 334 53 17 7 43 312 7 39 23 11 355 327 136 281 258 326 338 272 251 283 339 359 30 317 353 22 15 328 17 340 288 5 354 351 333 318 322
325 334 340 342 342 344 346 348 349 350 351 348 347 344 345 352 341 321 62 30 27 105 80 280 342 340 251 343 345 265 252 285 274 258 247 251 294 20 48 78 63 346 325 326 283 6 338 268 341 326 327 326 331 340
314 324 334 339 341 341 342 344 345 345 350 348 345 343 346 348 299 310 77 34 28 53 225 281 317 48 345 352 343 352 225 233 252 308 260 19 29 7 77 81 55 349 339 338 290 322 283 291 300 305 310 318 333 347
307 316 323 331 337 339 338 340 342 343 345 346 344 343 345 8 272 327 347 252 3 350 124 343 317 344 351 354 348 348 344 262 276 335 23 55 41 347 63 72 169 348 313 287 281 294 288 282 284 284 312 328 342 13
302 307 313 319 328 336 336 337 339 341 343 344 344 347 5 72 66 82 141 319 332 338 79 338 336 338 344 355 344 339 332 345 67 66 47 76 21 40 71 22 322 323 312 306 301 322 311 312 310 313 328 329 1 37
296 300 304 309 317 328 335 335 336 337 343 344 345 330 162 44 107 77 11 3 15 105 63 61 302 352 13 338 328 350 334 325 18 104 46 58 18 52 92 323 318 317 317 300 328 318 294 291 311 321 332 342 12 27
291 295 299 303 308 318 329 334 334 334 341 341 340 248 275 315 24 321 331 324 36 62 106 72 71 296 0 333 310 322 17 345 354 63 50 71 357 44 315 322 324 328 326 309 316 315 328 330 332 337 347 0 10 31
287 291 295 298 301 307 320 330 331 331 339 338 342 289 348 344 325 342 6 22 16 345 28 93 136 294 25 339 306 331 346 310 0 61 79 67 112 233 276 312 310 319 323 325 333 338 342 339 335 347 348 358 20 30
287 289 292 294 295 300 310 323 325 332 338 347 2 254 314 328 12 35 32 67 327 19 13 217 156 252 4 27 297 304 299 298 24 350 91 17 257 280 302 315 319 319 324 326 324 321 329 331 344 351 356 7 31 50
284 285 286 288 287 290 296 313 311 333 330 302 287 301 315 29 35 78 296 322 83 219 195 132 249 215 301 347 300 318 297 5 337 8 68 283 253 280 317 318 326 328 332 334 345 341 347 6 8 14 21 19 34 52
282 282 282 282 280 277 281 295 300 320 322 285 291 33 43 315 30 144 228 291 282 198 215 39 333 331 341 42 324 354 18 249 332 34 240 224 251 299 307 304 321 334 344 347 354 357 2 16 31 31 31 32 47 56
281 281 280 279 273 267 268 274 290 318 306 78 85 286 165 263 242 185 187 176 202 119 137 115 56 65 290 25 275 56 257 48 19 353 242 241 248 269 297 301 326 328 341 344 351 356 359 11 31 39 38 41 46 54
280 281 279 273 267 257 250 249 263 284 253 226 116 244 215 205 135 145 118 128 114 113 106 80 46 84 338 45 53 8 1 283 204 230 233 223 246 268 300 313 315 326 336 340 346 359 5 7 31 46 50 57 59 57
279 284 270 269 262 248 232 236 209 166 232 165 225 257 163 60 179 188 181 163 156 121 94 54 110 52 296 142 64 215 128 229 238 209 206 195 253 273 281 306 318 331 336 343 0 6 25 26 24 47 64 65 67 69
279 249 259 264 247 215 202 189 157 189 218 212 248 232 185 294 208 159 150 158 150 124 158 121 124 217 98 37 260 195 210 216 196 217 194 191 220 258 289 312 319 339 335 343 355 25 38 61 71 57 54 61 75 80
248 257 258 233 212 185 178 167 167 162 233 218 204 192 199 70 129 124 123 146 144 151 142 205 125 152 201 195 232 227 216 220 220 193 197 232 245 272 283 299 311 311 316 323 345 17 51 58 53 66 77 81 82 83
256 259 251 212 199 162 153 177 175 229 221 198 151 129 102 108 72 79 113 127 94 114 115 70 130 209 223 213 204 201 201 188 190 209 223 253 262 252 278 294 284 297 301 280 247 89 70 61 59 75 83 90 85 82
263 256 230 198 191 144 136 153 178 144 212 222 92 139 94 83 104 111 122 128 133 137 146 206 217 212 198 214 176 156 160 154 130 84 317 303 204 239 259 269 270 271 276 254 210 169 122 79 58 63 76 81 91 75
261 250 189 167 178 161 125 137 135 183 140 157 183 140 106 138 127 165 160 142 172 214 236 223 214 236 153 144 154 144 152 160 177 164 172 185 211 269 259 252 270 258 251 228 153 138 130 107 66 62 75 69 77 61
182 171 141 169 106 82 87 20 116 124 107 151 135 155 149 179 179 193 126 192 231 225 213 183 196 160 158 166 161 169 170 178 173 175 198 231 274 213 233 227 261 256 234 209 205 185 167 141 177 91 94 76 95 68
161 148 126 139 116 139 119 123 131 156 159 186 149 184 208 195 141 135 237 224 253 221 197 167 160 151 147 146 155 158 171 175 176 191 203 207 226 235 236 236 242 236 211 213 205 192 180 116 109 137 125 110 108 70
138 156 161 176 144 129 119 99 88 117 112 192 179 210 196 151 150 195 252 249 226 150 169 156 139 108 98 127 144 178 187 186 178 181 199 208 215 208 214 235 242 235 222 221 199 190 190 181 179 197 185 8 182 10
148 198 158 146 127 126 152 157 176 184 219 179 203 201 176 162 186 226 236 262 207 175 153 154 160 128 137 120 158 190 190 189 182 190 204 210 213 194 208 219 226 213 200 190 187 192 197 209 215 246 276 281 272 293
225 178 191 180 155 186 174 165 192 189 155 173 208 100 162 165 209 241 225 231 202 179 175 178 168 150 156 169 151 178 192 185 189 188 220 220 218 214 203 185 182 215 207 202 202 198 200 211 232 280 296 294 302 306
235 201 115 11 116 116 116 75 150 160 179 189 159 164 159 207 233 250 347 332 279 224 185 177 174 168 163 171 151 169 175 183 182 188 193 209 213 223 221 201 204 226 207 195 196 204 222 245 271 288 294 295 301 306
28 6 183 164 103 158 135 169 191 200 176 134 135 180 199 215 290 24 356 337 351 148 158 166 176 172 156 169 159 156 158 176 189 215 258 258 245 237 234 232 227 201 186 195 207 234 263 275 282 285 289 299 304 305
32 346 68 99 164 167 56 248 326 44 358 180 182 185 190 56 15 5 358 22 137 144 130 129 126 138 131 144 156 169 174 182 174 127 215 259 302 244 228 223 213 203 210 220 237 260 279 282 282 277 279 285 293 294
14 329 42 36 10 96 14 331 353 334 353 26 2 124 106 73 13 13 116 134 149 144 146 154 151 154 154 160 168 184 204 213 220 225 187 222 236 216 202 206 202 194 208 227 244 270 283 288 273 283 303 304 304 304
334 50 76 47 74 330 303 312 289 316 24 30 359 41 56 45 57 47 132 163 154 150 144 146 165 177 177 180 181 185 230 238 234 227 225 226 205 178 176 179 192 205 225 243 263 285 298 289 278 288 301 306 310 304
22 31 72 94 63 351 311 352 9 30 16 35 20 4 346 249 219 136 224 194 179 177 183 194 197 209 209 200 206 214 228 244 211 214 215 217 215 215 217 217 218 233 257 261 262 275 278 279 279 281 294 302 306 305
63 55 73 94 72 29 16 342 29 68 42 43 29 1 4 336 279 303 296 227 227 240 226 230 219 206 221 217 214 216 239 235 218 215 223 226 223 230 233 234 234 255 269 275 275 277 269 269 269 275 288 295 298 297